Location: Clanezzo
(45.7500°N, 9.6000°E)
Time: 21:56:42
(UTC+00:00)

SPROUT - Pass Details

Date: 08 July 2022
Orbit: 588 x 598 km, 97.9° (Epoch: 07 August)

Event Time Altitude Azimuth Distance (km) Brightness Sun altitude
Exits shadow 01:27:41 14° 266° (W) 1,699 ? -16.4°
Maximum altitude 01:27:57 14° 270° (W) 1,696 ? -16.4°
Drops below altitude 10° 01:30:04 10° 301° (WNW) 1,924 ? -16.2°
Sets 01:33:17 0° 328° (NNW) 2,834 ? -16.0°
